World > North America > United States > California > Encinitas   City of Encinitas, CA

Encinitas, CA Hourly Weather Updates

Feedback E-mail the Weather

Quick Clicks

Encinitas, CA Weather Maps

°F °C°F °C
Encinitas Weather Map
UTC Time: 4/18/2024, 06:38
Your Time:

Encinitas, CA Regional Weather

Expires:202404180700;;939380
ASUS46 KSGX 180610
RWRSGX

SAN DIEGO HOURLY WEATHER ROUNDUP
NATIONAL WEATHER SERVICE SAN DIEGO CA
1100 PM PDT WED APR 17 2024

NOTE: "FAIR" INDICATES FEW OR NO CLOUDS BELOW 12,000 FEET WITH NO 
SIGNIFICANT WEATHER AND/OR OBSTRUCTIONS TO VISIBILITY.


CAZ042-043-060-061-PZZ750-775-180700-

GREATER SAN DIEGO AREA
  
CITY           SKY/WX    TMP DP  RH WIND       PRES   REMARKS
SAN DIEGO AP   MOCLDY    59  55  87 CALM      30.03R                  
BROWN FIELD    MOCLDY    56  54  93 CALM      30.01R FOG              
MIRAMAR MCAS   FOG       47  47 100 CALM      30.01R VSB 1            
MONTGOMERY FLD PTCLDY    57  54  89 CALM      30.01R                  
GILLESPIE FLD  PTCLDY    55  48  76 NW3       30.01R                  

$$

NORTH SAN DIEGO COUNTY
  
CITY           SKY/WX    TMP DP  RH WIND       PRES   REMARKS
CAMP PENDLETON PTCLDY    53  48  83 CALM      30.02R                  
OCEANSIDE AP   PTCLDY    51  50  96 CALM      30.00S FOG              
OCEANSIDE HBR    N/A     57  54  89 CALM      30.06S                  
VISTA            N/A     53  51  90 CALM      30.00R                  
CARLSBAD       MOCLDY    57  54  89 SW3       30.01S                  
ENCINITAS        N/A     55  54  94 CALM        N/A                   
LA JOLLA SCRIP   N/A     57  50  78 CALM      30.01S                  
FALLBROOK      PTCLDY    55  48  76 N5        30.02R                  
ESCONDIDO        N/A     60  49  66 CALM      30.00S                  
SAN MARCOS       N/A     56  50  79 CALM      29.98S                  
POWAY            N/A     54  48  80 W1        30.03R                  

$$

EAST SAN DIEGO COUNTY
  
CITY           SKY/WX    TMP DP  RH WIND       PRES   REMARKS
RAMONA         PTCLDY    48  44  86 CALM      30.02R                  
LA MESA          N/A     56  52  86 CALM      29.95R                  
DESCANSO N       N/A     48  34  58 N7        30.04R                  

$$

ORANGE COUNTY AND THE LOS ANGELES BASIN
  
CITY           SKY/WX    TMP DP  RH WIND       PRES   REMARKS
JOHN WAYNE AP  PTCLDY    64  55  72 W3        30.00F                  
LAKE FOREST FR   N/A     57  41  54 CALM      29.86S                  
LOS ALAMITOS   PTCLDY    58  53  84 SE3       29.96S                  
FULLERTON      PTCLDY    60  54  80 S3        29.99R                  
LONG BEACH     PTCLDY    61  52  72 CALM      29.99F                  
L.A. AP        MOCLDY    55  53  93 SW5       29.99R                  
L.A. DOWNTOWN  PTCLDY    60  53  77 CALM      30.00F                  

$$

THE INLAND EMPIRE
  
CITY           SKY/WX    TMP DP  RH WIND       PRES   REMARKS
CORONA         PTCLDY    56  49  77 CALM      30.01F                  
UPLAND AP      FAIR      63  45  51 CALM      30.01R                  
CHINO          PTCLDY    60  32  34 CALM      30.01R                  
ONTARIO        MOCLDY    62  40  44 SW3       30.00F                  
SAN BERNARDINO PTCLDY    64  41  43 CALM      30.02S                  
RIVERSIDE AP   PTCLDY    63  41  44 CALM      30.01R                  
MARCH ARB      PTCLDY    54  44  69 CALM      30.02R                  
HORSETHIEF CYN   N/A     56  43  62 S1        29.98S                  
LAKE ELSINORE    N/A     60  48  62 CALM      29.93S                  
HEMET AP       FAIR      58  42  54 CALM      30.03R                  
FRENCH VALLEY  PTCLDY    57  43  58 CALM      30.03S                  

$$

SAN BERNARDINO AND RIVERSIDE COUNTY MOUNTAINS
  
CITY           SKY/WX    TMP DP  RH WIND       PRES   REMARKS
BIG BEAR AP    MOCLDY    41  32  70 W3        30.20R                  
ANGELUS OAKS     N/A     49  36  60 CALM      29.91S                  

$$

SOUTHERN DESERT INCLUDING THE COACHELLA VALLEY
  
CITY           SKY/WX    TMP DP  RH WIND       PRES   REMARKS
PALM SPRINGS   PTCLDY    81  36  19 NW16      29.87S                  
THOUSAND PALMS   N/A     76  41  28 NW14      29.81S                  
THERMAL        PTCLDY    78  41  26 NW7       29.83R                  
BORREGO AP     PTCLDY    77  28  16 NW15G22   29.88F                  
CANEBRAKE        N/A     74  25  16 W1        29.81S                  
BLYTHE         CLEAR     78  29  16 S8        29.85F                  
IMPERIAL AP    PTCLDY    72  38  29 W10       29.84F                  
EL CENTRO NAS  PTCLDY    77  33  20 SW10      29.87R                  
YUMA AZ        CLEAR     72  35  25 CALM      29.86R                  

$$

UPPER DESERT
  
CITY           SKY/WX    TMP DP  RH WIND       PRES   REMARKS
VICTORVILLE AP PTCLDY    63  32  31 S6        30.04F                  
PALMDALE       PTCLDY    64  41  42 S12       30.00F                  
LANCASTER      PTCLDY    64  42  44 SW7       29.99R                  
EDWARDS AFB    MOCLDY    63  41  45 SW16      29.94R                  
DAGGETT        MOCLDY    74  35  24 W17       29.91R                  
29 PALMS N     PTCLDY    72  34  24 W8        29.99R                  
29 PALMS JTNP    N/A     72  36  27 CALM      29.79S                  
NEEDLES        PTCLDY    82  29  14 S9        29.84S                  

$$

REGIONAL REPORTS
  
CITY           SKY/WX    TMP DP  RH WIND       PRES   REMARKS
SANTA BARBARA  FOG       54  54 100 CALM      29.97R VSB 1/4          
SANDBERG       PTCLDY    55  43  63 W12       30.10F                  
LAS VEGAS NV   MOCLDY    74  27  17 S8        29.87R                  
PHOENIX AZ     MOCLDY    77  37  23 CALM      29.88F                  
TIJUANA        FOG       54  54 100 W2        30.04  VSB 1/8          
ENSENADA NW      N/A     58  32  37 NE1       29.81S                  

$$

OFFSHORE ISLANDS
  
CITY           SKY/WX    TMP DP  RH WIND       PRES   REMARKS
CATALINA ARPT  PTCLDY    63  28  26 SE6       30.01R                  
SAN NICOLAS IS FOG       53  52  96 CALM      30.00R VSB 1/4          

$$

MARINE AND OFFSHORE BUOY REPORTS
  
STATION/POSITION SKY/WX   TEMP    WIND        PRES    VSBY  SWELL
                          AIR SEA DIR/SP/G                  HT/PER/DIR
                          (F)     (DEG/KT/KT) (MB)    (MI)  (FT/S/D)
TANNER BANKS               57 59  290/  8/ 12 1016.1R         5/210/16
S CLEMENTE BASIN           56 60  170/  4/  4 1015.1F         5/220/16
SAN NICOLAS IS.            54 58                N/A           5/170/17
SO. S. ROSA ISLA           54 58   CALM  /  2 1015.0R         7/190/16
W. S. BARBARA CH           56 58  300/  4/  8 1014.6R         7/200/16
M. S. BARBARA CH           53 57  100/  2/  4 1013.9F         3/270/11
S. MONICA BASIN            54 59   CALM  /  4 1015.9F         3/170/16
S PEDRO CHANNEL               59                N/A           2/180/17
OCEANSIDE OFFSHR              61                N/A           3/200/17
TORREY PINES OTR              62                N/A           3/200/17
SAN DIEGO BAY                 64              1016.5R
IMPERIAL BEACH                61                N/A           3/240/17
POINT LOMA SOUTH                                N/A           5/200/15

$$

  

SKY/WX - Weather  TMP - Temperature  DP - Dew Point  RH - Humidity
WIND - Wind Direction/Speed PRES - Barometric Pressure VSB - Visibility
WCI - Wind Chill Index E13G22 Wind - East Wind 13 mph/Gusts of 22 mph

Trending Headlines

Trending Entertainment Headlines

Encinitas Radar Loop

Use the map search tool if you want to place a location marker on the radar map...

Encinitas Quick Facts

National Two Day Weather Forecast


E-mail the Encinitas Weather Forecast

Voice your opinion or tell us about page issues...